| time (UTC) | temp F | wind direction | speed MPH | gust MPH | rain 1hr in | rain 24hr in | rain mn in | humidity % | barometer mb |
| 20260505181729 | 85 | 224 | 11.0 | 20.0 | 0.00 | 0.00 | 0.00 | 33 | 1006.5 |
| 20260505181228 | 85 | 229 | 10.0 | 19.0 | 0.00 | 0.00 | 0.00 | 33 | 1006.7 |
| 20260505180730 | 85 | 180 | 11.0 | 22.0 | 0.00 | 0.00 | 0.00 | 34 | 1006.7 |
| 20260505180229 | 85 | 187 | 10.0 | 22.0 | 0.00 | 0.00 | 0.00 | 33 | 1007.0 |
| 20260505175730 | 85 | 213 | 10.0 | 19.0 | 0.00 | 0.00 | 0.00 | 34 | 1007.0 |
| 20260505175510 | 85 | 254 | 10.0 | 20.0 | 0.00 | 0.00 | 0.00 | 35 | 1006.9 |
| 20260505174728 | 85 | 178 | 9.0 | 20.0 | 0.00 | 0.00 | 0.00 | 34 | 1007.0 |
| 20260505174229 | 85 | 218 | 9.0 | 20.0 | 0.00 | 0.00 | 0.00 | 35 | 1007.1 |
| 20260505173728 | 84 | 225 | 8.0 | 20.0 | 0.00 | 0.00 | 0.00 | 35 | 1007.0 |
| 20260505173229 | 84 | 217 | 9.0 | 19.0 | 0.00 | 0.00 | 0.00 | 35 | 1007.0 |
| 20260505172729 | 84 | 197 | 9.0 | 19.0 | 0.00 | 0.00 | 0.00 | 35 | 1007.1 |
| 20260505172229 | 84 | 202 | 8.0 | 18.0 | 0.00 | 0.00 | 0.00 | 37 | 1007.4 |
| 20260505171730 | 84 | 219 | 9.0 | 18.0 | 0.00 | 0.00 | 0.00 | 36 | 1007.3 |
| 20260505171228 | 84 | 180 | 9.0 | 17.0 | 0.00 | 0.00 | 0.00 | 37 | 1007.4 |
| 20260505170730 | 83 | 247 | 9.0 | 20.0 | 0.00 | 0.00 | 0.00 | 37 | 1007.3 |
| 20260505170229 | 83 | 241 | 9.0 | 20.0 | 0.00 | 0.00 | 0.00 | 37 | 1007.4 |
| 20260505165729 | 83 | 215 | 8.0 | 17.0 | 0.00 | 0.00 | 0.00 | 37 | 1007.4 |
| 20260505165229 | 83 | 224 | 8.0 | 17.0 | 0.00 | 0.00 | 0.00 | 38 | 1007.4 |
| 20260505164729 | 82 | 273 | 8.0 | 16.0 | 0.00 | 0.00 | 0.00 | 38 | 1007.6 |
| 20260505164229 | 82 | 250 | 9.0 | 18.0 | 0.00 | 0.00 | 0.00 | 38 | 1007.6 |
| 20260505163849 | 83 | 263 | 8.0 | 17.0 | 0.00 | 0.00 | 0.00 | 38 | 1007.9 |
| 20260505163844 | 83 | 251 | 7.0 | 16.0 | 0.00 | 0.00 | 0.00 | 38 | 1007.9 |
| 20260505163826 | 83 | 233 | 9.0 | 18.0 | 0.00 | 0.00 | 0.00 | 38 | 1007.8 |
| 20260505162231 | 82 | 212 | 7.0 | 14.0 | 0.00 | 0.00 | 0.00 | 39 | 1007.9 |
| 20260505161724 | 82 | 224 | 8.0 | 16.0 | 0.00 | 0.00 | 0.00 | 39 | 1008.1 |
| 20260505161214 | 82 | 242 | 7.0 | 16.0 | 0.00 | 0.00 | 0.00 | 39 | 1008.2 |
| 20260505160708 | 82 | 196 | 6.0 | 13.0 | 0.00 | 0.00 | 0.00 | 39 | 1008.1 |
| 20260505160204 | 82 | 188 | 6.0 | 13.0 | 0.00 | 0.00 | 0.00 | 39 | 1008.2 |
| 20260505153202 | 80 | 202 | 7.0 | 16.0 | 0.00 | 0.00 | 0.00 | 40 | 1008.4 |
| 20260505152702 | 80 | 284 | 7.0 | 18.0 | 0.00 | 0.00 | 0.00 | 40 | 1008.3 |
| 20260505152202 | 80 | 198 | 6.0 | 18.0 | 0.00 | 0.00 | 0.00 | 40 | 1008.4 |
| 20260505151701 | 79 | 187 | 5.0 | 13.0 | 0.00 | 0.00 | 0.00 | 43 | 1008.3 |
| 20260505151442 | 78 | 214 | 6.0 | 13.0 | 0.00 | 0.00 | 0.00 | 42 | 1008.5 |
| 20260505150946 | 78 | 244 | 5.0 | 13.0 | 0.00 | 0.00 | 0.00 | 43 | 1008.4 |
| 20260505150202 | 78 | 198 | 6.0 | 13.0 | 0.00 | 0.00 | 0.00 | 42 | 1008.6 |
| 20260505140202 | 74 | 230 | 7.0 | 15.0 | 0.00 | 0.00 | 0.00 | 49 | 1009.0 |
| 20260505130201 | 69 | 200 | 5.0 | 14.0 | 0.00 | 0.00 | 0.00 | 59 | 1009.0 |
| 20260505124701 | 68 | 227 | 5.0 | 11.0 | 0.00 | 0.00 | 0.00 | 61 | 1009.1 |
| 20260505124202 | 67 | 198 | 6.0 | 13.0 | 0.00 | 0.00 | 0.00 | 63 | 1009.1 |
| 20260505123700 | 67 | 217 | 6.0 | 13.0 | 0.00 | 0.00 | 0.00 | 63 | 1009.0 |
| 20260505123202 | 66 | 248 | 3.0 | 9.0 | 0.00 | 0.00 | 0.00 | 64 | 1009.0 |
| 20260505122702 | 66 | 217 | 3.0 | 7.0 | 0.00 | 0.00 | 0.00 | 66 | 1008.9 |
| 20260505122202 | 65 | 240 | 4.0 | 9.0 | 0.00 | 0.00 | 0.00 | 68 | 1009.0 |
| 20260505121701 | 64 | 234 | 3.0 | 9.0 | 0.00 | 0.00 | 0.00 | 69 | 1008.9 |
| 20260505121202 | 64 | 225 | 2.0 | 5.0 | 0.00 | 0.00 | 0.00 | 70 | 1009.0 |
| 20260505120702 | 63 | 227 | 2.0 | 6.0 | 0.00 | 0.00 | 0.00 | 71 | 1008.9 |
| 20260505120201 | 63 | 221 | 3.0 | 6.0 | 0.00 | 0.00 | 0.00 | 72 | 1008.9 |
| 20260505115704 | 63 | 232 | 2.0 | 6.0 | 0.00 | 0.00 | 0.00 | 72 | 1008.9 |
| 20260505115203 | 62 | 201 | 2.0 | 5.0 | 0.00 | 0.00 | 0.00 | 73 | 1008.9 |
| 20260505114702 | 62 | 246 | 2.0 | 5.0 | 0.00 | 0.00 | 0.00 | 73 | 1008.9 |
| 20260505114202 | 62 | 231 | 1.0 | 4.0 | 0.00 | 0.00 | 0.00 | 73 | 1008.9 |
| 20260505113948 | 62 | 223 | 2.0 | 6.0 | 0.00 | 0.00 | 0.00 | 73 | 1009.0 |
| 20260505113201 | 62 | 271 | 4.0 | 7.0 | 0.00 | 0.00 | 0.00 | 72 | 1009.0 |
| 20260505112703 | 62 | 255 | 4.0 | 9.0 | 0.00 | 0.00 | 0.00 | 72 | 1009.0 |
| 20260505112202 | 62 | 238 | 3.0 | 9.0 | 0.00 | 0.00 | 0.00 | 72 | 1009.0 |
| 20260505111702 | 62 | 228 | 3.0 | 9.0 | 0.00 | 0.00 | 0.00 | 72 | 1009.0 |
| 20260505111206 | 62 | 237 | 3.0 | 9.0 | 0.00 | 0.00 | 0.00 | 72 | 1009.0 |
| 20260505110946 | 62 | 216 | 3.0 | 6.0 | 0.00 | 0.00 | 0.00 | 72 | 1009.0 |
| 20260505110203 | 62 | 242 | 3.0 | 11.0 | 0.00 | 0.00 | 0.00 | 72 | 1009.1 |
| 20260505101701 | 62 | 194 | 7.0 | 18.0 | 0.00 | 0.00 | 0.00 | 70 | 1008.1 |
| 20260505101201 | 62 | 198 | 8.0 | 18.0 | 0.00 | 0.00 | 0.00 | 70 | 1007.8 |
| 20260505100937 | 62 | 243 | 8.0 | 16.0 | 0.00 | 0.00 | 0.00 | 70 | 1007.8 |
| 20260505100200 | 62 | 265 | 7.0 | 16.0 | 0.00 | 0.00 | 0.00 | 70 | 1007.8 |
| 20260505095701 | 62 | 234 | 8.0 | 15.0 | 0.00 | 0.00 | 0.00 | 69 | 1007.8 |
| 20260505095203 | 62 | 201 | 8.0 | 15.0 | 0.00 | 0.00 | 0.00 | 69 | 1007.8 |
| 20260505094701 | 62 | 229 | 8.0 | 15.0 | 0.00 | 0.00 | 0.00 | 68 | 1007.8 |
| 20260505094201 | 63 | 248 | 8.0 | 15.0 | 0.00 | 0.00 | 0.00 | 68 | 1007.8 |
| 20260505093700 | 63 | 187 | 9.0 | 15.0 | 0.00 | 0.00 | 0.00 | 68 | 1007.7 |
| 20260505093201 | 63 | 212 | 9.0 | 16.0 | 0.00 | 0.00 | 0.00 | 68 | 1007.8 |
| 20260505092700 | 63 | 234 | 9.0 | 18.0 | 0.00 | 0.00 | 0.00 | 68 | 1007.7 |
| 20260505092202 | 63 | 179 | 8.0 | 18.0 | 0.00 | 0.00 | 0.00 | 68 | 1007.7 |
| 20260505091944 | 62 | 208 | 7.0 | 14.0 | 0.00 | 0.00 | 0.00 | 68 | 1007.8 |
| 20260505091444 | 62 | 222 | 7.0 | 14.0 | 0.00 | 0.00 | 0.00 | 68 | 1007.7 |
| 20260505090701 | 62 | 181 | 6.0 | 13.0 | 0.00 | 0.00 | 0.00 | 68 | 1007.6 |
| 20260505090442 | 62 | 244 | 6.0 | 13.0 | 0.00 | 0.00 | 0.00 | 68 | 1007.5 |
| 20260505085700 | 62 | 160 | 6.0 | 14.0 | 0.00 | 0.00 | 0.00 | 68 | 1007.6 |
| 20260505085201 | 62 | 234 | 6.0 | 14.0 | 0.00 | 0.00 | 0.00 | 68 | 1007.7 |
| 20260505084947 | 62 | 221 | 6.0 | 14.0 | 0.00 | 0.00 | 0.00 | 69 | 1007.6 |
| 20260505084201 | 62 | 184 | 6.0 | 13.0 | 0.00 | 0.00 | 0.00 | 68 | 1007.6 |
| 20260505083700 | 62 | 215 | 7.0 | 13.0 | 0.00 | 0.00 | 0.00 | 68 | 1007.8 |
| 20260505083201 | 62 | 204 | 7.0 | 14.0 | 0.00 | 0.00 | 0.00 | 68 | 1007.7 |
| 20260505082701 | 62 | 226 | 7.0 | 14.0 | 0.00 | 0.00 | 0.00 | 68 | 1007.7 |
| 20260505082200 | 62 | 231 | 6.0 | 16.0 | 0.00 | 0.00 | 0.00 | 68 | 1007.7 |
| 20260505081701 | 61 | 195 | 5.0 | 16.0 | 0.00 | 0.00 | 0.00 | 68 | 1007.7 |
| 20260505081202 | 61 | 223 | 5.0 | 13.0 | 0.00 | 0.00 | 0.00 | 68 | 1007.7 |
| 20260505080700 | 61 | 209 | 5.0 | 13.0 | 0.00 | 0.00 | 0.00 | 68 | 1007.7 |
| 20260505080200 | 61 | 191 | 6.0 | 12.0 | 0.00 | 0.00 | 0.00 | 68 | 1007.7 |
| 20260505075943 | 61 | 222 | 7.0 | 11.0 | 0.00 | 0.00 | 0.00 | 68 | 1007.7 |
| 20260505075202 | 61 | 207 | 6.0 | 13.0 | 0.00 | 0.00 | 0.00 | 68 | 1007.7 |
| 20260505074702 | 61 | 230 | 6.0 | 13.0 | 0.00 | 0.00 | 0.00 | 68 | 1007.7 |
| 20260505074203 | 61 | 234 | 6.0 | 12.0 | 0.00 | 0.00 | 0.00 | 67 | 1007.6 |
| 20260505073703 | 62 | 197 | 5.0 | 12.0 | 0.00 | 0.00 | 0.00 | 67 | 1007.6 |
| 20260505073201 | 62 | 182 | 5.0 | 13.0 | 0.00 | 0.00 | 0.00 | 67 | 1007.6 |
| 20260505072702 | 62 | 207 | 6.0 | 13.0 | 0.00 | 0.00 | 0.00 | 67 | 1007.5 |
| 20260505072447 | 62 | 201 | 5.0 | 12.0 | 0.00 | 0.00 | 0.00 | 67 | 1007.4 |
| 20260505071702 | 62 | 219 | 6.0 | 11.0 | 0.00 | 0.00 | 0.00 | 67 | 1007.4 |
| 20260505071203 | 62 | 199 | 6.0 | 16.0 | 0.00 | 0.00 | 0.00 | 67 | 1007.4 |
| 20260505070945 | 62 | 216 | 7.0 | 16.0 | 0.00 | 0.00 | 0.00 | 67 | 1007.4 |
| 20260505070202 | 62 | 178 | 7.0 | 13.0 | 0.00 | 0.00 | 0.00 | 67 | 1007.4 |
| 20260505065946 | 62 | 165 | 6.0 | 13.0 | 0.00 | 0.00 | 0.00 | 67 | 1007.6 |
| 20260505065202 | 62 | 213 | 6.0 | 13.0 | 0.00 | 0.00 | 0.00 | 66 | 1007.5 |
| 20260505064704 | 62 | 198 | 6.0 | 15.0 | 0.00 | 0.00 | 0.00 | 66 | 1007.5 |
| 20260505064203 | 62 | 209 | 6.0 | 15.0 | 0.00 | 0.00 | 0.00 | 65 | 1007.5 |
| 20260505063702 | 62 | 203 | 6.0 | 12.0 | 0.00 | 0.00 | 0.00 | 65 | 1007.5 |
| 20260505063450 | 62 | 171 | 7.0 | 14.0 | 0.00 | 0.00 | 0.00 | 65 | 1007.5 |
| 20260505062701 | 62 | 187 | 7.0 | 14.0 | 0.00 | 0.00 | 0.00 | 65 | 1007.5 |
| 20260505062201 | 62 | 233 | 6.0 | 12.0 | 0.00 | 0.00 | 0.00 | 65 | 1007.6 |
| 20260505061702 | 62 | 209 | 6.0 | 13.0 | 0.00 | 0.00 | 0.00 | 65 | 1007.6 |
| 20260505061445 | 62 | 210 | 5.0 | 13.0 | 0.00 | 0.00 | 0.00 | 64 | 1007.6 |
| 20260505060701 | 62 | 226 | 5.0 | 11.0 | 0.00 | 0.00 | 0.00 | 64 | 1007.5 |
| 20260505060202 | 62 | 191 | 6.0 | 13.0 | 0.00 | 0.00 | 0.00 | 63 | 1007.5 |
| 20260505055702 | 63 | 196 | 7.0 | 13.0 | 0.00 | 0.00 | 0.00 | 63 | 1007.5 |
| 20260505055203 | 63 | 168 | 6.0 | 15.0 | 0.00 | 0.00 | 0.00 | 62 | 1007.5 |
| 20260505054704 | 63 | 198 | 7.0 | 15.0 | 0.00 | 0.00 | 0.00 | 62 | 1007.6 |
| 20260505054202 | 63 | 217 | 7.0 | 15.0 | 0.00 | 0.00 | 0.00 | 62 | 1007.7 |
| 20260505053702 | 63 | 185 | 7.0 | 15.0 | 0.00 | 0.00 | 0.00 | 62 | 1007.7 |
| 20260505053201 | 63 | 177 | 7.0 | 15.0 | 0.00 | 0.00 | 0.00 | 61 | 1007.6 |
| 20260505052703 | 63 | 194 | 7.0 | 16.0 | 0.00 | 0.00 | 0.00 | 61 | 1007.6 |
| 20260505052203 | 63 | 184 | 8.0 | 16.0 | 0.00 | 0.00 | 0.00 | 61 | 1007.7 |
| 20260505051703 | 63 | 208 | 8.0 | 16.0 | 0.00 | 0.00 | 0.00 | 61 | 1007.6 |
| 20260505051202 | 63 | 202 | 8.0 | 16.0 | 0.00 | 0.00 | 0.00 | 61 | 1007.7 |
| 20260505050700 | 63 | 192 | 8.0 | 16.0 | 0.00 | 0.00 | 0.00 | 60 | 1007.8 |
| 20260505050201 | 63 | 239 | 9.0 | 20.0 | 0.00 | 0.00 | 0.00 | 60 | 1007.9 |
| 20260505041702 | 63 | 184 | 7.0 | 20.0 | 0.00 | 0.00 | 0.00 | 59 | 1008.1 |
| 20260505041202 | 63 | 195 | 8.0 | 20.0 | 0.00 | 0.00 | 0.00 | 59 | 1008.1 |
| 20260505040702 | 63 | 219 | 8.0 | 18.0 | 0.00 | 0.00 | 0.00 | 59 | 1008.1 |
| 20260505040203 | 63 | 186 | 7.0 | 18.0 | 0.00 | 0.00 | 0.00 | 59 | 1008.2 |
| 20260505035703 | 63 | 188 | 6.0 | 14.0 | 0.00 | 0.00 | 0.00 | 59 | 1008.2 |
| 20260505035159 | 63 | 208 | 7.0 | 16.0 | 0.00 | 0.00 | 0.00 | 59 | 1008.2 |
| 20260505034949 | 63 | 190 | 6.0 | 16.0 | 0.00 | 0.00 | 0.00 | 59 | 1008.2 |
| 20260505034200 | 62 | 189 | 6.0 | 14.0 | 0.00 | 0.00 | 0.00 | 59 | 1008.3 |
| 20260505033947 | 62 | 223 | 6.0 | 14.0 | 0.00 | 0.00 | 0.00 | 59 | 1008.3 |
| 20260505033159 | 62 | 161 | 6.0 | 14.0 | 0.00 | 0.00 | 0.00 | 59 | 1008.2 |
| 20260505032700 | 62 | 200 | 5.0 | 12.0 | 0.00 | 0.00 | 0.00 | 60 | 1008.2 |
| 20260505032201 | 62 | 165 | 4.0 | 12.0 | 0.00 | 0.00 | 0.00 | 59 | 1008.4 |
| 20260505031706 | 62 | 180 | 4.0 | 11.0 | 0.00 | 0.00 | 0.00 | 59 | 1008.3 |
| 20260505031445 | 62 | 165 | 4.0 | 11.0 | 0.00 | 0.00 | 0.00 | 59 | 1008.4 |
| 20260505030652 | 62 | 180 | 4.0 | 13.0 | 0.00 | 0.00 | 0.00 | 59 | 1008.5 |
| 20260505030153 | 62 | 152 | 4.0 | 13.0 | 0.00 | 0.00 | 0.00 | 59 | 1008.5 |
| 20260505025651 | 62 | 190 | 4.0 | 10.0 | 0.00 | 0.00 | 0.00 | 58 | 1008.6 |
| 20260505025151 | 63 | 184 | 4.0 | 11.0 | 0.00 | 0.00 | 0.00 | 58 | 1008.6 |
| 20260505024652 | 63 | 198 | 4.0 | 11.0 | 0.00 | 0.00 | 0.00 | 57 | 1008.7 |
| 20260505024153 | 63 | 178 | 4.0 | 9.0 | 0.00 | 0.00 | 0.00 | 57 | 1008.6 |
| 20260505023650 | 63 | 182 | 4.0 | 9.0 | 0.00 | 0.00 | 0.00 | 56 | 1008.8 |
| 20260505023446 | 63 | 184 | 4.0 | 10.0 | 0.00 | 0.00 | 0.00 | 55 | 1008.8 |
| 20260505023158 | 63 | 165 | 4.0 | 10.0 | 0.00 | 0.00 | 0.00 | 55 | 1008.8 |
| 20260505022136 | 63 | 198 | 4.0 | 11.0 | 0.00 | 0.00 | 0.00 | 54 | 1008.9 |
| 20260505021917 | 64 | 174 | 4.0 | 11.0 | 0.00 | 0.00 | 0.00 | 53 | 1008.9 |
| 20260505021136 | 64 | 205 | 4.0 | 11.0 | 0.00 | 0.00 | 0.00 | 53 | 1008.8 |
| 20260505020634 | 64 | 208 | 4.0 | 11.0 | 0.00 | 0.00 | 0.00 | 52 | 1008.9 |
| 20260505020134 | 64 | 205 | 4.0 | 13.0 | 0.00 | 0.00 | 0.00 | 52 | 1008.8 |
| 20260505015914 | 64 | 191 | 4.0 | 13.0 | 0.00 | 0.00 | 0.00 | 52 | 1008.8 |
| 20260505015131 | 64 | 180 | 4.0 | 11.0 | 0.00 | 0.00 | 0.00 | 51 | 1008.8 |
| 20260505014632 | 64 | 207 | 4.0 | 11.0 | 0.00 | 0.00 | 0.00 | 51 | 1008.8 |
| 20260505014131 | 65 | 161 | 3.0 | 8.0 | 0.00 | 0.00 | 0.00 | 51 | 1008.8 |
| 20260505013630 | 65 | 171 | 4.0 | 10.0 | 0.00 | 0.00 | 0.00 | 50 | 1008.7 |
| 20260505013128 | 65 | 191 | 4.0 | 10.0 | 0.00 | 0.00 | 0.00 | 50 | 1008.8 |
| 20260505012630 | 65 | 183 | 3.0 | 11.0 | 0.00 | 0.00 | 0.00 | 49 | 1008.7 |
| 20260505012129 | 65 | 192 | 3.0 | 11.0 | 0.00 | 0.00 | 0.00 | 49 | 1008.6 |
| 20260505011913 | 65 | 196 | 3.0 | 10.0 | 0.00 | 0.00 | 0.00 | 48 | 1008.6 |
| 20260505011130 | 66 | 190 | 3.0 | 10.0 | 0.00 | 0.00 | 0.00 | 48 | 1008.5 |
| 20260505010630 | 66 | 178 | 3.0 | 10.0 | 0.00 | 0.00 | 0.00 | 48 | 1008.4 |
| 20260505010409 | 66 | 190 | 4.0 | 10.0 | 0.00 | 0.00 | 0.00 | 48 | 1008.2 |
| 20260505005628 | 66 | 216 | 4.0 | 13.0 | 0.00 | 0.00 | 0.00 | 47 | 1008.3 |
| 20260505005128 | 67 | 132 | 5.0 | 13.0 | 0.00 | 0.00 | 0.00 | 47 | 1008.3 |
| 20260505004630 | 67 | 173 | 5.0 | 13.0 | 0.00 | 0.00 | 0.00 | 47 | 1008.1 |
| 20260505004129 | 67 | 194 | 6.0 | 11.0 | 0.00 | 0.00 | 0.00 | 46 | 1008.1 |
| 20260505003630 | 67 | 168 | 7.0 | 19.0 | 0.00 | 0.00 | 0.00 | 46 | 1008.1 |
| 20260505003130 | 67 | 196 | 7.0 | 19.0 | 0.00 | 0.00 | 0.00 | 46 | 1008.0 |
| 20260505002630 | 67 | 164 | 6.0 | 14.0 | 0.00 | 0.00 | 0.00 | 46 | 1008.0 |
| 20260505002130 | 68 | 186 | 5.0 | 14.0 | 0.00 | 0.00 | 0.00 | 46 | 1007.9 |
| 20260505001845 | 68 | 193 | 5.0 | 15.0 | 0.00 | 0.00 | 0.00 | 46 | 1007.9 |
| 20260505001129 | 68 | 198 | 4.0 | 15.0 | 0.00 | 0.00 | 0.00 | 46 | 1007.7 |
| 20260505000629 | 68 | 179 | 4.0 | 10.0 | 0.00 | 0.00 | 0.00 | 47 | 1007.7 |
| 20260505000129 | 68 | 185 | 5.0 | 12.0 | 0.00 | 0.00 | 0.00 | 46 | 1007.6 |
| 20260504235629 | 69 | 213 | 6.0 | 14.0 | 0.00 | 0.00 | 0.00 | 46 | 1007.4 |
| 20260504235129 | 69 | 190 | 5.0 | 14.0 | 0.00 | 0.00 | 0.00 | 46 | 1007.4 |
| 20260504234629 | 69 | 207 | 4.0 | 14.0 | 0.00 | 0.00 | 0.00 | 46 | 1007.3 |
| 20260504234130 | 70 | 182 | 4.0 | 14.0 | 0.00 | 0.00 | 0.00 | 45 | 1007.2 |
| 20260504233908 | 71 | 191 | 5.0 | 14.0 | 0.00 | 0.00 | 0.00 | 44 | 1007.2 |
| 20260504233410 | 71 | 183 | 4.0 | 12.0 | 0.00 | 0.00 | 0.00 | 42 | 1007.2 |
| 20260504232630 | 72 | 171 | 4.0 | 14.0 | 0.00 | 0.00 | 0.00 | 33 | 1007.1 |
| 20260504232129 | 72 | 200 | 7.0 | 14.0 | 0.00 | 0.00 | 0.00 | 32 | 1007.1 |
| 20260504231629 | 72 | 213 | 7.0 | 12.0 | 0.00 | 0.00 | 0.00 | 32 | 1006.9 |
| 20260504231130 | 73 | 227 | 8.0 | 17.0 | 0.00 | 0.00 | 0.00 | 32 | 1006.9 |
| 20260504230630 | 73 | 241 | 8.0 | 17.0 | 0.00 | 0.00 | 0.00 | 32 | 1006.8 |
| 20260504230128 | 73 | 199 | 8.0 | 15.0 | 0.00 | 0.00 | 0.00 | 32 | 1006.9 |
| 20260504225630 | 73 | 182 | 8.0 | 16.0 | 0.00 | 0.00 | 0.00 | 32 | 1006.9 |
| 20260504225129 | 73 | 230 | 8.0 | 16.0 | 0.00 | 0.00 | 0.00 | 32 | 1006.8 |
| 20260504224912 | 73 | 0 | 7.0 | 14.0 | 0.00 | 0.00 | 0.00 | 31 | 1006.8 |
| 20260504224414 | 73 | 205 | 6.0 | 16.0 | 0.00 | 0.00 | 0.00 | 32 | 1006.8 |
| 20260504223630 | 74 | 0 | 7.0 | 16.0 | 0.00 | 0.00 | 0.00 | 31 | 1006.9 |
| 20260504223420 | 74 | 217 | 7.0 | 15.0 | 0.00 | 0.00 | 0.00 | 31 | 1006.8 |
| 20260504222629 | 74 | 248 | 8.0 | 17.0 | 0.00 | 0.00 | 0.00 | 31 | 1006.8 |
| 20260504222129 | 74 | 197 | 9.0 | 17.0 | 0.00 | 0.00 | 0.00 | 31 | 1006.9 |
| 20260504221630 | 74 | 0 | 9.0 | 18.0 | 0.00 | 0.00 | 0.00 | 31 | 1007.0 |
| 20260504221128 | 74 | 194 | 10.0 | 18.0 | 0.00 | 0.00 | 0.00 | 30 | 1006.9 |
| 20260504220917 | 74 | 251 | 9.0 | 17.0 | 0.00 | 0.00 | 0.00 | 30 | 1007.0 |
| 20260504220129 | 74 | 217 | 7.0 | 15.0 | 0.00 | 0.00 | 0.00 | 30 | 1006.9 |
| 20260504215630 | 74 | 174 | 8.0 | 17.0 | 0.00 | 0.00 | 0.00 | 30 | 1007.0 |
| 20260504215128 | 74 | 236 | 9.0 | 21.0 | 0.00 | 0.00 | 0.00 | 30 | 1007.0 |
| 20260504214628 | 74 | 219 | 10.0 | 21.0 | 0.00 | 0.00 | 0.00 | 30 | 1007.0 |
| 20260504214130 | 74 | 223 | 8.0 | 15.0 | 0.00 | 0.00 | 0.00 | 30 | 1007.1 |
| 20260504213629 | 74 | 238 | 6.0 | 15.0 | 0.00 | 0.00 | 0.00 | 30 | 1007.1 |
| 20260504213129 | 74 | 300 | 8.0 | 19.0 | 0.00 | 0.00 | 0.00 | 31 | 1007.2 |
| 20260504212628 | 74 | 225 | 10.0 | 19.0 | 0.00 | 0.00 | 0.00 | 30 | 1007.1 |
| 20260504212129 | 74 | 189 | 8.0 | 16.0 | 0.00 | 0.00 | 0.00 | 30 | 1007.1 |
| 20260504211629 | 74 | 254 | 9.0 | 17.0 | 0.00 | 0.00 | 0.00 | 30 | 1007.0 |
| 20260504211411 | 75 | 253 | 8.0 | 17.0 | 0.00 | 0.00 | 0.00 | 29 | 1007.0 |
| 20260504210629 | 75 | 200 | 7.0 | 13.0 | 0.00 | 0.00 | 0.00 | 30 | 1007.1 |
| 20260504210129 | 74 | 271 | 6.0 | 13.0 | 0.00 | 0.00 | 0.00 | 30 | 1007.1 |
| 20260504205628 | 74 | 222 | 7.0 | 17.0 | 0.00 | 0.00 | 0.00 | 30 | 1007.1 |
| 20260504205416 | 74 | 231 | 8.0 | 18.0 | 0.00 | 0.00 | 0.00 | 30 | 1007.2 |
| 20260504204915 | 74 | 212 | 9.0 | 19.0 | 0.00 | 0.00 | 0.00 | 31 | 1007.2 |
| 20260504204129 | 74 | 240 | 9.0 | 19.0 | 0.00 | 0.00 | 0.00 | 30 | 1007.1 |
| 20260504203628 | 74 | 182 | 8.0 | 17.0 | 0.00 | 0.00 | 0.00 | 29 | 1007.0 |
| 20260504203129 | 75 | 213 | 7.0 | 17.0 | 0.00 | 0.00 | 0.00 | 30 | 1007.1 |
| 20260504202913 | 74 | 221 | 7.0 | 14.0 | 0.00 | 0.00 | 0.00 | 30 | 1007.0 |
| 20260504202129 | 74 | 292 | 8.0 | 15.0 | 0.00 | 0.00 | 0.00 | 31 | 1007.2 |
| 20260504201629 | 74 | 220 | 8.0 | 18.0 | 0.00 | 0.00 | 0.00 | 30 | 1007.3 |
| 20260504201130 | 74 | 192 | 9.0 | 18.0 | 0.00 | 0.00 | 0.00 | 30 | 1007.2 |
| 20260504200630 | 74 | 223 | 10.0 | 18.0 | 0.00 | 0.00 | 0.00 | 30 | 1007.3 |
| 20260504200206 | 74 | 213 | 9.0 | 19.0 | 0.00 | 0.00 | 0.00 | 31 | 1007.2 |
| 20260504200150 | 74 | 257 | 9.0 | 18.0 | 0.00 | 0.00 | 0.00 | 31 | 1007.3 |
| 20260504195128 | 74 | 165 | 11.0 | 19.0 | 0.00 | 0.00 | 0.00 | 31 | 1007.5 |
| 20260504194629 | 74 | 252 | 9.0 | 18.0 | 0.00 | 0.00 | 0.00 | 31 | 1007.5 |
| 20260504194134 | 74 | 208 | 7.0 | 15.0 | 0.00 | 0.00 | 0.00 | 31 | 1007.4 |
| 20260504193632 | 74 | 187 | 7.0 | 16.0 | 0.00 | 0.00 | 0.00 | 31 | 1007.5 |
| 20260504193409 | 74 | 265 | 7.0 | 16.0 | 0.00 | 0.00 | 0.00 | 31 | 1007.6 |
| 20260504192630 | 74 | 210 | 8.0 | 18.0 | 0.00 | 0.00 | 0.00 | 31 | 1007.6 |
| 20260504192412 | 74 | 239 | 8.0 | 18.0 | 0.00 | 0.00 | 0.00 | 31 | 1007.8 |
| 20260504191628 | 74 | 189 | 9.0 | 17.0 | 0.00 | 0.00 | 0.00 | 32 | 1007.9 |
| 20260504191128 | 74 | 226 | 10.0 | 20.0 | 0.00 | 0.00 | 0.00 | 31 | 1007.9 |
| 20260504190910 | 74 | 230 | 9.0 | 20.0 | 0.00 | 0.00 | 0.00 | 31 | 1007.8 |
| 20260504190411 | 74 | 254 | 9.0 | 19.0 | 0.00 | 0.00 | 0.00 | 33 | 1008.0 |
| 20260504185629 | 74 | 250 | 10.0 | 21.0 | 0.00 | 0.00 | 0.00 | 32 | 1008.3 |
| 20260504185128 | 74 | 261 | 10.0 | 21.0 | 0.00 | 0.00 | 0.00 | 32 | 1008.4 |
| 20260504184630 | 73 | 200 | 10.0 | 18.0 | 0.00 | 0.00 | 0.00 | 33 | 1008.3 |
| 20260504184410 | 73 | 226 | 9.0 | 17.0 | 0.00 | 0.00 | 0.00 | 33 | 1008.4 |
| 20260504183632 | 73 | 232 | 9.0 | 24.0 | 0.00 | 0.00 | 0.00 | 33 | 1008.6 |
| 20260504183131 | 73 | 173 | 10.0 | 24.0 | 0.00 | 0.00 | 0.00 | 32 | 1008.4 |
| 20260504182631 | 73 | 210 | 10.0 | 20.0 | 0.00 | 0.00 | 0.00 | 32 | 1008.5 |
| 20260504182131 | 73 | 196 | 9.0 | 20.0 | 0.00 | 0.00 | 0.00 | 32 | 1008.6 |